INTELSAT 22 (IS-22)

Last updated on Thu Jul 03 2025 00:02:45 GMT+0000 (Coordinated Universal Time)

1 38098U 12011A 25183.50941917 -.00000051 00000+0 00000+0 0 9993 2 38098 0.0158 47.0976 0001720 55.7793 73.3997 1.00271352 3689
UTC large
Height (km)
Speed (km/s)
/
Latitude / Longitude
Inclination (degrees)
Orbital Period (minutes)
Azimuth
Elevation
Range (km)
Doppler Factor

Next 0 passes for location: London (51.5072 / 0.1276)

Sorry there are no passes over London.